This is the latest recevied weather packets stored in our database for station/object EA1BVF-10. If no packets are shown the sender has not sent any weather packets the latest 10 day(s).
| Time | Temp. | Humidity | Pressure | Rain* | Wind** | Luminosity | Snow |
|---|---|---|---|---|---|---|---|
| 1788137046 | 12.22° C | 54% | 1038.7 hPa | - | - | - | - |
| 1788136550 | 12.22° C | 55% | 1038.8 hPa | - | - | - | - |
| 1788134750 | 12.78° C | 53% | 1038.8 hPa | - | - | - | - |
| 1788132950 | 12.78° C | 50% | 1039 hPa | - | - | - | - |
| 1788131150 | 12.78° C | 47% | 1039.1 hPa | - | - | - | - |
| 1788129350 | 12.78° C | 47% | 1038.9 hPa | - | - | - | - |
| 1788127549 | 13.33° C | 49% | 1038.9 hPa | - | - | - | - |
| 1788125747 | 13.33° C | 53% | 1038.8 hPa | - | - | - | - |
| 1788123949 | 13.33° C | 58% | 1038.7 hPa | - | - | - | - |
| 1788122149 | 13.33° C | 62% | 1038.4 hPa | - | - | - | - |
| 1788120349 | 13.89° C | 61% | 1038 hPa | - | - | - | - |
| 1788118547 | 13.89° C | 56% | 1037.6 hPa | - | - | - | - |
| 1788116747 | 13.89° C | 51% | 1037.4 hPa | - | - | - | - |
| 1788114948 | 13.89° C | 49% | 1037.4 hPa | - | - | - | - |
| 1788113148 | 13.89° C | 49% | 1037.3 hPa | - | - | - | - |
| 1788111348 | 13.89° C | 46% | 1037.3 hPa | - | - | - | - |
| 1788109547 | 13.89° C | 46% | 1037.2 hPa | - | - | - | - |
| 1788107747 | 13.89° C | 48% | 1037.2 hPa | - | - | - | - |
| 1788105947 | 13.33° C | 54% | 1037.1 hPa | - | - | - | - |
| 1788104147 | 13.33° C | 56% | 1037.1 hPa | - | - | - | - |
| 1788102347 | 13.33° C | 58% | 1036.9 hPa | - | - | - | - |
| 1788100547 | 12.78° C | 59% | 1036.8 hPa | - | - | - | - |
| 1788098747 | 12.78° C | 60% | 1036.7 hPa | - | - | - | - |
| 1788096947 | 12.78° C | 55% | 1036.8 hPa | - | - | - | - |
| 1788095147 | 12.22° C | 51% | 1036.7 hPa | - | - | - | - |
* Rain since midnight (hover to see other rain measurements)
** Current wind speed in m/s (hover to see current wind gust speed)